HULIANWANG DIGUI-30

Satellite information

Favourite Embed

Satellite Type and Status

PAYLOADIN ORBIT

Key statistics

Satellite HULIANWANG DIGUI-30 at a glance.

Uptime

30

Days in orbit

Revolutions

≈ 13.7

Per day

Orbit

LEO

Low Earth Orbit

Inclination

86.5

Latest

Satellite identification and parameters

Extended collection of information and parameters for HULIANWANG DIGUI-30.

Object identification

Identified? True

Debris? False

Object name: HULIANWANG DIGUI-30

International designator: 2025-121A

Object number (NORAD): 64283

Object ID (CCSDS): 64283

Country: PEOPLES REPUBLIC OF CHINA (PRC)

Current information (Y/N): Y

RCS size: LARGE

Orbital parameters

Period: 105.473 minutes

Inclination: 86.5007 deg

SMA: 7394.699 km

Apoapsis: 1025.087 km

Periapsis: 1008.042 km

RAAN: 132.2048 deg

Eccentricy: 0.0011525

Argument of periapsis: 136.9737 deg

Mean anomaly: 223.2323 deg

Mean motion: 13.65280775 rev/day

Mean motion (dot): 0.00000004 rev/day2

B* drag term: -0.000015731 1/REarth

Two-line elements (TLE)

Creation date: July 4, 2025, 6:39 p.m.

Reference frame: TEME

Reference center: EARTH

Epoch: July 4, 2025, 2:34 p.m. UTC

TLE line 0: 0 HULIANWANG DIGUI-30

TLE line 1: 1 64283U 25121A 25185.60763081 .00000004 00000-0 -15731-4 0 9992

TLE line 2: 2 64283 86.5007 132.2048 0011525 136.9737 223.2323 13.65280775 3937

Live tracking on map

Real-time ground track for satellite HULIANWANG DIGUI-30.

In-orbit conjunctions

There are no conjunctions computed for HULIANWANG DIGUI-30, at the moment. Check back to stay up to date, as we update our databases every day.

Go to all conjunctions

Associated space launch

A batch of Low Earth Orbit communication satellites for the Chinese state owned SatNet constellation operated by the China Satellite Network Group. The constellation will eventually consists of 13000 satellites.

HULIANWANG DIGUI-30 was lifted into orbit during the mission ‘Long March 6A | SatNet LEO Group 04’, on board a Long March 6A space rocket.

The launch took place on June 5, 2025, 8:45 p.m. from Launch Complex 9A.

For more information about the launch, click the button.

Launch to space Long March 6A | SatNet LEO Group 04
Long March 6A | SatNet LEO Group 04

Agency: N/A

Status: Launch Successful

Launch date: June 5, 2025, 8:45 p.m. UTC

Rocket: Long March 6A

Launch pad: Launch Complex 9A

Location: Taiyuan Satellite Launch Center, People's Republic of China

...

Latest news about this satellite

News about space launch
China launches fourth group of Guowang megaconstellation satellites

China launched a fourth group of satellites for its Guowang low Earth orbit megaconstellation Thursday, but released few details about the payload or objectives. The post China launches fourth group of Guowang megaconstellation satellites appeared first ...


Newsletter sign-up

Weekly statistics, charts and insights to help you stay on top of the space industry.